Location: Proctor
(47.8934°N, 114.3048°W)
Time: 21:16:41
(UTC+00:00)

Tiros 1 despin weight - Pass Details

Date: 01 July 2024
Orbit: 576 x 620 km, 48.2° (Epoch: 19 July)

Event Time Altitude Azimuth Distance (km) Brightness Sun altitude
Rises 22:32:28 0° 282° (WNW) 2,896 ? 48.0°
Reaches altitude 10° 22:35:22 10° 264° (W) 1,987 ? 47.5°
Maximum altitude 22:38:28 18° 221° (SW) 1,513 ? 47.0°
Drops below altitude 10° 22:41:34 10° 177° (S) 1,973 ? 46.6°
Sets 22:44:27 0° 159° (SSE) 2,869 ? 46.1°
